This demonstration page uses our WeatherBlox Daily Observations layout. Learn more.

Left ArrowRight Arrow

39.92423, -83.80882

Hourly Observations for May 3, 2018

Temp ( °F °C ) Dew Point ( °F °C ) Humidity (%) Winds ( mph kmh ) Pressure ( in mb ) Visibility ( mi km ) Precip ( " mm )
12:56 am 00:56 Clear 71 21.7 59 15 66 66 SW 12 19 30.04 1017 10 16.0934 0 0
1:56 am 01:56 Clear 71 21.7 59 15 66 66 SW 9 15 30.04 1017 10 16.0934 0 0
2:56 am 02:56 Clear 69 20.6 59 15 70 70 SSW 8 13 30.03 1017 10 16.0934 0 0
3:56 am 03:56 Clear 69 20.6 59 15 70 70 SSW 7 11 30.04 1017 10 16.0934 0 0
4:56 am 04:56 Clear 69 20.6 59 15 70 70 SSW 9 15 30.04 1017 10 16.0934 0 0
6:56 am 06:56 Sunny 69 20.6 58 14.4 68 68 SSW 10 17 30.02 1017 10 16.0934 0 0
7:17 am 07:17 Partly Cloudy with Nearby Thunderstorms 70 21 57 14 64 64 SSW 12 19 30 1016 10 16.0934 0 0
7:32 am 07:32 Sunny 70 21 59 15 69 69 SSW 17 28 30 1016 10 16.0934 0 0
7:56 am 07:56 Hazy 68 20 59 15 73 73 SSW 8 13 30.03 1017 5 8.0467 0 0
8:56 am 08:56 Sunny 73 22.8 59 15 62 62 SSW 18 30 30.01 1016 10 16.0934 0 0
9:56 am 09:56 Sunny N/A N/A N/A SW 17 28 N/A 10 16.0934 0.06 1.524
10:56 am 10:56 Mostly Sunny 79 26.1 61 16.1 54 54 SW 20 31 30.01 1016 10 16.0934 0 0
11:56 am 11:56 Cloudy 75 23.9 60 15.6 60 60 SW 22 35 30.05 1018 9 14.48406 0 0
12:09 pm 12:09 Cloudy with Nearby Thunderstorms 70 21 63 17 78 78 WSW 22 35 30.06 1018 8 12.87472 0.04 1.016
12:33 pm 12:33 Mostly Cloudy 70 21 64 18 83 83 SW 20 31 30.06 1018 10 16.0934 0.05 1.27
12:56 pm 12:56 Mostly Sunny 71 21.7 64 17.8 79 79 WSW 17 28 30.05 1018 10 16.0934 0.05 1.27
1:56 pm 13:56 Mostly Sunny 75 23.9 64 17.8 69 69 SSW 14 22 30.01 1016 10 16.0934 0 0
2:56 pm 14:56 Mostly Sunny 77 25 62 16.7 60 60 SW 20 31 30.01 1016 10 16.0934 0 0
3:56 pm 15:56 Cloudy 75 23.9 60 15.6 60 60 WSW 22 35 30.02 1017 10 16.0934 0 0
4:56 pm 16:56 Partly Cloudy 78 25.6 62 16.7 58 58 W 22 35 30.03 1017 10 16.0934 0 0.0254
5:56 pm 17:56 Cloudy 77 25 61 16.1 58 58 WSW 20 31 30.03 1017 10 16.0934 0 0
6:56 pm 18:56 Mostly Cloudy 76 24.4 62 16.7 62 62 WSW 15 24 30.03 1017 10 16.0934 0 0
7:56 pm 19:56 Cloudy 74 23.3 62 16.7 67 67 WSW 16 26 30.04 1017 10 16.0934 0 0
8:56 pm 20:56 Cloudy 72 22.2 62 16.7 71 71 SW 12 19 30.05 1018 10 16.0934 0 0
9:56 pm 21:56 Cloudy 70 21.1 62 16.7 76 76 SW 8 13 30.03 1017 10 16.0934 0 0
10:56 pm 22:56 Partly Cloudy 69 20.6 62 16.7 78 78 S 7 11 30.01 1016 10 16.0934 0 0
11:56 pm 23:56 Mostly Cloudy 68 20 62 16.7 81 81 SSE 5 7 29.98 1015 10 16.0934 0 0

Powered by AerisWeather